Time,TemperatureF,DewpointF,PressureIn,WindDirection,WindDirectionDegrees,WindSpeedMPH,WindSpeedGustMPH,Humidity,HourlyPrecipIn,Conditions,Clouds,dailyrainin,SoftwareType,DateUTC
2013-01-28 00:00:00,22.1,19.1,30.55,West,261,0.0,0.0,88,0.00,,SKC,0.00,VWS V14.00,2013-01-28 05:00:00,
2013-01-28 00:01:00,22.2,19.2,30.55,West,261,0.0,0.0,88,0.00,,SKC,0.00,VWS V14.00,2013-01-28 05:01:00,
2013-01-28 00:03:00,22.3,19.3,30.54,West,261,0.0,0.0,88,0.00,,SKC,0.00,VWS V14.00,2013-01-28 05:03:00,
2013-01-28 00:04:00,22.4,19.4,30.54,West,261,0.0,0.0,88,0.00,,SKC,0.00,VWS V14.00,2013-01-28 05:04:00,
2013-01-28 00:09:00,22.6,19.6,30.54,West,261,0.0,0.0,88,0.00,,SKC,0.00,VWS V14.00,2013-01-28 05:09:00,
2013-01-28 00:14:00,22.9,19.9,30.53,West,261,0.0,1.0,88,0.00,,SKC,0.00,VWS V14.00,2013-01-28 05:14:00,
2013-01-28 00:19:00,23.1,20.1,30.53,West,261,0.0,1.0,88,0.00,,SKC,0.00,VWS V14.00,2013-01-28 05:19:00,
2013-01-28 00:24:00,23.5,20.5,30.53,West,261,0.0,0.0,88,0.00,,SKC,0.00,VWS V14.00,2013-01-28 05:24:00,
2013-01-28 00:29:00,23.8,20.5,30.53,West,261,0.0,0.0,87,0.00,,SKC,0.00,VWS V14.00,2013-01-28 05:29:00,
2013-01-28 00:30:00,23.4,20.4,30.53,West,261,0.0,1.0,88,0.00,,SKC,0.00,VWS V14.00,2013-01-28 05:30:00,
2013-01-28 00:34:00,24.1,20.8,30.52,West,261,0.0,1.0,87,0.00,,SKC,0.00,VWS V14.00,2013-01-28 05:34:00,
2013-01-28 00:39:00,24.4,20.8,30.52,West,261,0.0,1.0,86,0.00,,SKC,0.00,VWS V14.00,2013-01-28 05:39:00,
2013-01-28 00:44:00,24.6,20.7,30.52,West,262,0.0,1.0,85,0.00,,SKC,0.00,VWS V14.00,2013-01-28 05:44:00,
2013-01-28 00:49:00,24.8,20.7,30.52,West,266,0.0,2.0,84,0.00,,SKC,0.00,VWS V14.00,2013-01-28 05:49:00,
2013-01-28 00:54:00,25.0,20.9,30.52,West,266,0.0,0.0,84,0.00,,SKC,0.00,VWS V14.00,2013-01-28 05:54:00,
2013-01-28 00:59:00,25.1,20.7,30.52,West,266,0.0,1.0,83,0.00,,SKC,0.00,VWS V14.00,2013-01-28 05:59:00,
2013-01-28 01:00:00,25.0,20.9,30.52,West,266,0.0,2.0,84,0.00,,SKC,0.00,VWS V14.00,2013-01-28 06:00:00,
2013-01-28 01:04:00,25.2,21.0,30.52,West,266,0.0,1.0,84,0.00,,SKC,0.00,VWS V14.00,2013-01-28 06:04:00,
2013-01-28 01:09:00,25.2,21.0,30.51,West,266,0.0,1.0,84,0.00,,SKC,0.00,VWS V14.00,2013-01-28 06:09:00,
2013-01-28 01:14:00,25.2,21.0,30.51,West,266,0.0,1.0,84,0.00,,SKC,0.00,VWS V14.00,2013-01-28 06:14:00,
2013-01-28 01:19:00,25.3,21.1,30.51,West,266,0.0,1.0,84,0.00,,SKC,0.00,VWS V14.00,2013-01-28 06:19:00,
2013-01-28 01:24:00,25.4,21.2,30.51,West,266,0.0,0.0,84,0.00,,SKC,0.00,VWS V14.00,2013-01-28 06:24:00,
2013-01-28 01:29:00,25.5,21.4,30.50,West,266,0.0,1.0,84,0.00,,SKC,0.00,VWS V14.00,2013-01-28 06:29:00,
2013-01-28 01:30:00,25.4,21.2,30.51,West,266,0.0,1.0,84,0.00,,SKC,0.00,VWS V14.00,2013-01-28 06:30:00,
2013-01-28 01:34:00,25.7,21.3,30.50,West,266,0.0,1.0,83,0.00,,SKC,0.00,VWS V14.00,2013-01-28 06:34:00,
2013-01-28 01:39:00,26.0,21.3,30.50,West,266,0.0,1.0,82,0.00,,SKC,0.00,VWS V14.00,2013-01-28 06:39:00,
2013-01-28 01:44:00,26.1,21.4,30.50,West,266,0.0,1.0,82,0.00,,SKC,0.00,VWS V14.00,2013-01-28 06:44:00,
2013-01-28 01:49:00,26.2,21.5,30.50,West,266,0.0,1.0,82,0.00,,SKC,0.00,VWS V14.00,2013-01-28 06:49:00,
2013-01-28 01:54:00,26.3,21.3,30.50,West,266,0.0,0.0,81,0.00,,SKC,0.00,VWS V14.00,2013-01-28 06:54:00,
2013-01-28 01:59:00,26.3,21.6,30.50,West,266,0.0,1.0,82,0.00,,SKC,0.00,VWS V14.00,2013-01-28 06:59:00,
2013-01-28 02:00:00,26.3,21.3,30.50,West,266,0.0,1.0,81,0.00,,SKC,0.00,VWS V14.00,2013-01-28 07:00:00,
2013-01-28 02:04:00,26.3,21.6,30.50,West,266,0.0,1.0,82,0.00,,SKC,0.00,VWS V14.00,2013-01-28 07:04:00,
2013-01-28 02:09:00,26.3,21.9,30.50,West,266,0.0,1.0,83,0.00,,SKC,0.00,VWS V14.00,2013-01-28 07:09:00,
2013-01-28 02:14:00,26.3,21.9,30.50,West,266,0.0,1.0,83,0.00,,SKC,0.00,VWS V14.00,2013-01-28 07:14:00,
2013-01-28 02:19:00,26.3,21.9,30.49,West,266,1.0,1.0,83,0.00,,SKC,0.00,VWS V14.00,2013-01-28 07:19:00,
2013-01-28 02:24:00,26.4,22.0,30.49,West,266,0.0,0.0,83,0.00,,SKC,0.00,VWS V14.00,2013-01-28 07:24:00,
2013-01-28 02:29:00,26.4,22.0,30.49,West,266,0.0,0.0,83,0.00,,SKC,0.00,VWS V14.00,2013-01-28 07:29:00,
2013-01-28 02:30:00,26.4,22.0,30.49,West,266,0.0,1.0,83,0.00,,SKC,0.00,VWS V14.00,2013-01-28 07:30:00,
2013-01-28 02:34:00,26.5,22.0,30.49,West,266,0.0,2.0,83,0.00,,SKC,0.00,VWS V14.00,2013-01-28 07:34:00,
2013-01-28 02:39:00,26.6,22.1,30.49,West,266,0.0,2.0,83,0.00,,SKC,0.00,VWS V14.00,2013-01-28 07:39:00,
2013-01-28 02:44:00,26.7,22.2,30.49,West,266,0.0,2.0,83,0.00,,SKC,0.00,VWS V14.00,2013-01-28 07:44:00,
2013-01-28 02:49:00,26.7,22.2,30.49,West,266,0.0,2.0,83,0.00,,SKC,0.00,VWS V14.00,2013-01-28 07:49:00,
2013-01-28 02:54:00,26.8,22.3,30.48,West,266,0.0,0.0,83,0.00,,SKC,0.00,VWS V14.00,2013-01-28 07:54:00,
2013-01-28 02:59:00,26.8,22.3,30.48,West,266,0.0,1.0,83,0.00,,SKC,0.00,VWS V14.00,2013-01-28 07:59:00,
2013-01-28 03:00:00,26.8,22.3,30.49,West,266,0.0,2.0,83,0.00,,SKC,0.00,VWS V14.00,2013-01-28 08:00:00,
2013-01-28 03:04:00,26.9,22.4,30.48,West,266,0.0,1.0,83,0.00,,SKC,0.00,VWS V14.00,2013-01-28 08:04:00,
2013-01-28 03:09:00,27.0,22.5,30.47,West,266,0.0,1.0,83,0.00,,SKC,0.00,VWS V14.00,2013-01-28 08:09:00,
2013-01-28 03:14:00,27.0,22.5,30.47,West,266,0.0,1.0,83,0.00,,SKC,0.00,VWS V14.00,2013-01-28 08:14:00,
2013-01-28 03:19:00,27.1,22.6,30.47,West,266,0.0,1.0,83,0.00,,SKC,0.00,VWS V14.00,2013-01-28 08:19:00,
2013-01-28 03:24:00,27.2,22.4,30.47,West,266,0.0,0.0,82,0.00,,SKC,0.00,VWS V14.00,2013-01-28 08:24:00,
2013-01-28 03:29:00,27.3,22.8,30.47,West,266,0.0,1.0,83,0.00,,SKC,0.00,VWS V14.00,2013-01-28 08:29:00,
2013-01-28 03:30:00,27.2,22.4,30.47,West,266,0.0,1.0,82,0.00,,SKC,0.00,VWS V14.00,2013-01-28 08:30:00,
2013-01-28 03:34:00,27.5,23.0,30.47,West,266,0.0,1.0,83,0.00,,SKC,0.00,VWS V14.00,2013-01-28 08:34:00,
2013-01-28 03:39:00,27.5,24.7,30.46,West,266,0.0,1.0,89,0.00,,SKC,0.00,VWS V14.00,2013-01-28 08:39:00,
2013-01-28 03:44:00,27.6,23.1,30.46,West,266,0.0,1.0,83,0.00,,SKC,0.00,VWS V14.00,2013-01-28 08:44:00,
2013-01-28 03:49:00,27.7,23.2,30.46,West,268,0.0,2.0,83,0.00,,SKC,0.00,VWS V14.00,2013-01-28 08:49:00,
2013-01-28 03:54:00,27.8,23.3,30.46,West,269,1.0,1.0,83,0.00,,SKC,0.00,VWS V14.00,2013-01-28 08:54:00,
2013-01-28 03:59:00,27.8,23.3,30.46,West,269,0.0,3.0,83,0.00,,SKC,0.00,VWS V14.00,2013-01-28 08:59:00,
2013-01-28 04:00:00,27.8,23.3,30.46,West,269,1.0,4.0,83,0.00,,SKC,0.00,VWS V14.00,2013-01-28 09:00:00,
2013-01-28 04:04:00,27.9,23.4,30.46,West,269,1.0,3.0,83,0.00,,SKC,0.00,VWS V14.00,2013-01-28 09:04:00,
2013-01-28 04:09:00,27.9,23.4,30.46,West,269,0.0,3.0,83,0.00,,SKC,0.00,VWS V14.00,2013-01-28 09:09:00,
2013-01-28 04:14:00,28.0,23.8,30.46,West,269,0.0,3.0,84,0.00,,SKC,0.00,VWS V14.00,2013-01-28 09:14:00,
2013-01-28 04:19:00,28.0,23.8,30.45,West,269,2.0,3.0,84,0.00,,SKC,0.00,VWS V14.00,2013-01-28 09:19:00,
2013-01-28 04:24:00,28.0,24.1,30.45,West,269,0.0,0.0,85,0.00,,SKC,0.00,VWS V14.00,2013-01-28 09:24:00,
2013-01-28 04:29:00,28.2,24.3,30.45,West,269,0.0,2.0,85,0.00,,SKC,0.00,VWS V14.00,2013-01-28 09:29:00,
2013-01-28 04:30:00,28.0,24.1,30.45,West,269,0.0,3.0,85,0.00,,SKC,0.00,VWS V14.00,2013-01-28 09:30:00,
2013-01-28 04:34:00,28.4,24.8,30.45,West,269,0.0,2.0,86,0.00,,SKC,0.00,VWS V14.00,2013-01-28 09:34:00,
2013-01-28 04:39:00,28.5,24.9,30.44,West,269,0.0,2.0,86,0.00,,SKC,0.00,VWS V14.00,2013-01-28 09:39:00,
2013-01-28 04:44:00,28.6,25.0,30.44,West,269,0.0,2.0,86,0.00,,SKC,0.00,VWS V14.00,2013-01-28 09:44:00,
2013-01-28 04:49:00,28.7,25.0,30.43,West,269,0.0,2.0,86,0.00,,SKC,0.00,VWS V14.00,2013-01-28 09:49:00,
2013-01-28 04:54:00,28.7,25.0,30.43,SSE,167,2.0,4.0,86,0.00,,SKC,0.00,VWS V14.00,2013-01-28 09:54:00,
2013-01-28 04:59:00,28.7,25.0,30.43,SSE,167,1.0,4.0,86,0.00,,SKC,0.00,VWS V14.00,2013-01-28 09:59:00,
2013-01-28 05:00:00,28.7,25.0,30.43,SSE,167,4.0,5.0,86,0.00,,SKC,0.00,VWS V14.00,2013-01-28 10:00:00,
2013-01-28 05:04:00,28.7,25.0,30.43,SSE,167,1.0,4.0,86,0.00,,SKC,0.00,VWS V14.00,2013-01-28 10:04:00,
2013-01-28 05:09:00,28.7,25.3,30.43,SSE,166,0.0,4.0,87,0.00,,SKC,0.00,VWS V14.00,2013-01-28 10:09:00,
2013-01-28 05:14:00,28.8,25.4,30.43,SSE,167,0.0,4.0,87,0.00,,SKC,0.00,VWS V14.00,2013-01-28 10:14:00,
2013-01-28 05:19:00,28.9,25.5,30.43,SSE,167,0.0,4.0,87,0.00,,SKC,0.00,VWS V14.00,2013-01-28 10:19:00,
2013-01-28 05:24:00,28.9,25.5,30.43,SSE,167,0.0,0.0,87,0.00,,SKC,0.00,VWS V14.00,2013-01-28 10:24:00,
2013-01-28 05:29:00,29.0,25.6,30.43,SSE,167,0.0,1.0,87,0.00,,SKC,0.00,VWS V14.00,2013-01-28 10:29:00,
2013-01-28 05:30:00,28.9,25.5,30.43,SSE,167,0.0,4.0,87,0.00,,SKC,0.00,VWS V14.00,2013-01-28 10:30:00,
2013-01-28 05:34:00,29.0,25.6,30.43,SSE,166,0.0,2.0,87,0.00,,SKC,0.00,VWS V14.00,2013-01-28 10:34:00,
2013-01-28 05:39:00,29.0,25.6,30.42,SSE,167,0.0,2.0,87,0.00,,SKC,0.00,VWS V14.00,2013-01-28 10:39:00,
2013-01-28 05:44:00,29.0,25.6,30.42,SSE,167,0.0,2.0,87,0.00,,SKC,0.00,VWS V14.00,2013-01-28 10:44:00,
2013-01-28 05:49:00,29.1,25.7,30.42,SE,124,5.0,5.0,87,0.00,,SKC,0.00,VWS V14.00,2013-01-28 10:49:00,
2013-01-28 05:54:00,29.1,25.7,30.42,ESE,120,1.0,4.0,87,0.00,,SKC,0.00,VWS V14.00,2013-01-28 10:54:00,
2013-01-28 05:59:00,29.1,25.7,30.42,ESE,120,1.0,4.0,87,0.00,,SKC,0.00,VWS V14.00,2013-01-28 10:59:00,
2013-01-28 06:00:00,29.1,25.7,30.42,ESE,120,2.0,5.0,87,0.00,,SKC,0.00,VWS V14.00,2013-01-28 11:00:00,
2013-01-28 06:04:00,29.2,26.1,30.42,ESE,120,2.0,4.0,88,0.00,,SKC,0.00,VWS V14.00,2013-01-28 11:04:00,
2013-01-28 06:09:00,29.2,26.1,30.42,ESE,120,2.0,4.0,88,0.00,,SKC,0.00,VWS V14.00,2013-01-28 11:09:00,
2013-01-28 06:14:00,29.2,26.1,30.42,ESE,120,0.0,4.0,88,0.00,,SKC,0.00,VWS V14.00,2013-01-28 11:14:00,
2013-01-28 06:19:00,29.2,26.1,30.43,ESE,120,0.0,4.0,88,0.00,,SKC,0.00,VWS V14.00,2013-01-28 11:19:00,
2013-01-28 06:24:00,29.2,26.1,30.43,ESE,120,0.0,0.0,88,0.00,,SKC,0.00,VWS V14.00,2013-01-28 11:24:00,
2013-01-28 06:29:00,29.3,26.2,30.43,ESE,120,0.0,0.0,88,0.00,,SKC,0.00,VWS V14.00,2013-01-28 11:29:00,
2013-01-28 06:30:00,29.2,26.1,30.43,ESE,120,0.0,4.0,88,0.00,,SKC,0.00,VWS V14.00,2013-01-28 11:30:00,
2013-01-28 06:34:00,29.3,26.2,30.43,ESE,120,0.0,1.0,88,0.00,,SKC,0.00,VWS V14.00,2013-01-28 11:34:00,
2013-01-28 06:39:00,29.3,26.5,30.43,ESE,120,0.0,1.0,89,0.00,,SKC,0.00,VWS V14.00,2013-01-28 11:39:00,
2013-01-28 06:44:00,29.3,26.5,30.43,ESE,120,0.0,1.0,89,0.00,,SKC,0.00,VWS V14.00,2013-01-28 11:44:00,
2013-01-28 06:49:00,29.4,26.6,30.43,ESE,120,0.0,1.0,89,0.00,,SKC,0.00,VWS V14.00,2013-01-28 11:49:00,
2013-01-28 06:54:00,29.4,26.6,30.42,ESE,120,0.0,0.0,89,0.00,,SKC,0.00,VWS V14.00,2013-01-28 11:54:00,
2013-01-28 06:59:00,29.4,26.8,30.42,ESE,120,0.0,0.0,90,0.00,,SKC,0.00,VWS V14.00,2013-01-28 11:59:00,
2013-01-28 07:00:00,29.4,26.8,30.42,ESE,120,0.0,1.0,90,0.00,,SKC,0.00,VWS V14.00,2013-01-28 12:00:00,
2013-01-28 07:04:00,29.5,26.9,30.42,ESE,120,0.0,0.0,90,0.00,,SKC,0.00,VWS V14.00,2013-01-28 12:04:00,
2013-01-28 07:09:00,29.6,27.0,30.42,ESE,120,0.0,1.0,90,0.00,,SKC,0.00,VWS V14.00,2013-01-28 12:09:00,
2013-01-28 07:14:00,29.6,27.0,30.42,ESE,120,0.0,1.0,90,0.00,,SKC,0.00,VWS V14.00,2013-01-28 12:14:00,
2013-01-28 07:19:00,29.7,27.4,30.42,ESE,120,2.0,5.0,91,0.00,,SKC,0.00,VWS V14.00,2013-01-28 12:19:00,
2013-01-28 07:24:00,29.7,27.4,30.42,ESE,121,1.0,2.0,91,0.00,,SKC,0.00,VWS V14.00,2013-01-28 12:24:00,
2013-01-28 07:29:00,29.8,27.5,30.42,ESE,122,0.0,2.0,91,0.00,,SKC,0.00,VWS V14.00,2013-01-28 12:29:00,
2013-01-28 07:30:00,29.7,27.4,30.42,ESE,121,2.0,5.0,91,0.00,,SKC,0.00,VWS V14.00,2013-01-28 12:30:00,
2013-01-28 07:34:00,29.9,27.6,30.42,SE,132,0.0,6.0,91,0.00,,SKC,0.00,VWS V14.00,2013-01-28 12:34:00,
2013-01-28 07:39:00,29.9,27.6,30.42,SE,132,0.0,6.0,91,0.00,,SKC,0.00,VWS V14.00,2013-01-28 12:39:00,
2013-01-28 07:44:00,29.9,27.6,30.42,SE,132,1.0,6.0,91,0.00,,SKC,0.00,VWS V14.00,2013-01-28 12:44:00,
2013-01-28 07:49:00,30.0,27.7,30.42,SE,132,0.0,6.0,91,0.00,,SKC,0.00,VWS V14.00,2013-01-28 12:49:00,
2013-01-28 07:54:00,30.0,27.7,30.41,SE,132,0.0,2.0,91,0.00,,SKC,0.00,VWS V14.00,2013-01-28 12:54:00,
2013-01-28 07:59:00,30.1,27.8,30.41,SE,132,0.0,2.0,91,0.00,,SKC,0.00,VWS V14.00,2013-01-28 12:59:00,
2013-01-28 08:00:00,30.0,27.7,30.41,SE,132,1.0,6.0,91,0.00,,SKC,0.00,VWS V14.00,2013-01-28 13:00:00,
2013-01-28 08:04:00,30.2,27.9,30.41,SSW,209,1.0,4.0,91,0.00,,SKC,0.00,VWS V14.00,2013-01-28 13:04:00,
2013-01-28 08:09:00,30.3,28.0,30.40,SE,144,1.0,5.0,91,0.00,,SKC,0.00,VWS V14.00,2013-01-28 13:09:00,
2013-01-28 08:14:00,30.5,28.2,30.40,SE,144,2.0,5.0,91,0.00,,SKC,0.00,VWS V14.00,2013-01-28 13:14:00,
2013-01-28 08:19:00,30.6,28.6,30.40,SSE,151,4.0,6.0,92,0.00,,SKC,0.00,VWS V14.00,2013-01-28 13:19:00,
2013-01-28 08:24:00,30.8,28.8,30.39,SSE,152,1.0,2.0,92,0.00,,SKC,0.00,VWS V14.00,2013-01-28 13:24:00,
2013-01-28 08:29:00,30.9,28.6,30.39,SE,130,2.0,6.0,91,0.00,,SKC,0.00,VWS V14.00,2013-01-28 13:29:00,
2013-01-28 08:30:00,30.8,28.8,30.39,SSE,152,0.0,6.0,92,0.00,,SKC,0.00,VWS V14.00,2013-01-28 13:30:00,
2013-01-28 08:34:00,31.1,28.8,30.38,SE,130,2.0,6.0,91,0.00,,SKC,0.00,VWS V14.00,2013-01-28 13:34:00,
2013-01-28 08:39:00,31.3,29.2,30.38,South,188,4.0,6.0,92,0.00,,SKC,0.00,VWS V14.00,2013-01-28 13:39:00,
2013-01-28 08:44:00,31.4,29.1,30.38,ESE,121,1.0,6.0,91,0.00,,SKC,0.00,VWS V14.00,2013-01-28 13:44:00,
2013-01-28 08:49:00,31.5,29.2,30.37,South,171,2.0,6.0,91,0.00,,SKC,0.00,VWS V14.00,2013-01-28 13:49:00,
2013-01-28 08:54:00,31.6,29.3,30.37,South,171,1.0,1.0,91,0.00,,SKC,0.00,VWS V14.00,2013-01-28 13:54:00,
2013-01-28 08:59:00,31.7,29.4,30.38,SW,227,1.0,5.0,91,0.00,,SKC,0.00,VWS V14.00,2013-01-28 13:59:00,
2013-01-28 09:00:00,31.6,29.3,30.37,South,171,1.0,6.0,91,0.00,,SKC,0.00,VWS V14.00,2013-01-28 14:00:00,
2013-01-28 09:04:00,31.8,29.5,30.38,SSE,154,1.0,5.0,91,0.00,,SKC,0.00,VWS V14.00,2013-01-28 14:04:00,
2013-01-28 09:09:00,31.9,29.6,30.38,South,185,2.0,5.0,91,0.00,,SKC,0.00,VWS V14.00,2013-01-28 14:09:00,
2013-01-28 09:14:00,31.9,29.6,30.37,South,184,0.0,5.0,91,0.00,,SKC,0.00,VWS V14.00,2013-01-28 14:14:00,
2013-01-28 09:19:00,32.0,29.7,30.36,South,178,2.0,5.0,91,0.00,,SKC,0.00,VWS V14.00,2013-01-28 14:19:00,
2013-01-28 09:24:00,32.0,29.7,30.37,South,182,0.0,2.0,91,0.00,,SKC,0.00,VWS V14.00,2013-01-28 14:24:00,
2013-01-28 09:29:00,32.1,29.8,30.37,SW,217,0.0,3.0,91,0.00,,SKC,0.00,VWS V14.00,2013-01-28 14:29:00,
2013-01-28 09:30:00,32.0,29.7,30.36,South,182,0.0,5.0,91,0.00,,SKC,0.00,VWS V14.00,2013-01-28 14:30:00,
2013-01-28 09:34:00,32.2,29.9,30.36,SW,227,1.0,6.0,91,0.00,,SKC,0.00,VWS V14.00,2013-01-28 14:34:00,
2013-01-28 09:39:00,32.3,30.0,30.37,SW,222,0.0,6.0,91,0.00,,SKC,0.00,VWS V14.00,2013-01-28 14:39:00,
2013-01-28 09:44:00,32.3,29.7,30.37,SE,138,0.0,6.0,90,0.00,,SKC,0.00,VWS V14.00,2013-01-28 14:44:00,
2013-01-28 09:49:00,32.3,29.7,30.37,South,169,1.0,6.0,90,0.00,,SKC,0.00,VWS V14.00,2013-01-28 14:49:00,
2013-01-28 09:54:00,32.4,29.8,30.36,South,175,2.0,2.0,90,0.00,,SKC,0.00,VWS V14.00,2013-01-28 14:54:00,
2013-01-28 09:59:00,32.4,29.8,30.35,SW,225,3.0,5.0,90,0.00,,SKC,0.00,VWS V14.00,2013-01-28 14:59:00,
2013-01-28 10:00:00,32.4,29.8,30.36,South,170,1.0,6.0,90,0.00,,SKC,0.00,VWS V14.00,2013-01-28 15:00:00,
2013-01-28 10:04:00,32.5,29.9,30.36,SSE,164,1.0,5.0,90,0.00,,SKC,0.00,VWS V14.00,2013-01-28 15:04:00,
2013-01-28 10:09:00,32.5,29.9,30.35,SSE,161,4.0,6.0,90,0.00,,SKC,0.00,VWS V14.00,2013-01-28 15:09:00,
2013-01-28 10:14:00,32.5,29.9,30.35,SW,218,3.0,6.0,90,0.00,,SKC,0.00,VWS V14.00,2013-01-28 15:14:00,
2013-01-28 10:19:00,32.6,30.0,30.35,SSW,209,0.0,6.0,90,0.00,,SKC,0.00,VWS V14.00,2013-01-28 15:19:00,
2013-01-28 10:24:00,32.6,30.0,30.35,SSW,209,0.0,1.0,90,0.00,,SKC,0.00,VWS V14.00,2013-01-28 15:24:00,
2013-01-28 10:29:00,32.7,30.1,30.35,South,184,0.0,3.0,90,0.00,,SKC,0.00,VWS V14.00,2013-01-28 15:29:00,
2013-01-28 10:30:00,32.6,30.0,30.35,SSW,209,0.0,6.0,90,0.00,,SKC,0.00,VWS V14.00,2013-01-28 15:30:00,
2013-01-28 10:37:00,32.7,30.1,30.33,SE,131,2.0,6.0,90,0.00,,SKC,0.00,VWS V14.00,2013-01-28 15:37:00,
2013-01-28 10:42:00,32.7,30.1,30.33,SE,130,4.0,6.0,90,0.00,,SKC,0.00,VWS V14.00,2013-01-28 15:42:00,
2013-01-28 10:47:00,32.8,30.2,30.32,SSE,150,1.0,7.0,90,0.00,,SKC,0.00,VWS V14.00,2013-01-28 15:47:00,
2013-01-28 10:52:00,32.8,30.2,30.32,South,179,2.0,7.0,90,0.00,,SKC,0.00,VWS V14.00,2013-01-28 15:52:00,
2013-01-28 10:57:00,32.8,30.2,30.33,SSE,157,1.0,4.0,90,0.00,,SKC,0.00,VWS V14.00,2013-01-28 15:57:00,
2013-01-28 11:00:00,32.8,30.2,30.32,SSE,159,4.0,7.0,90,0.00,,SKC,0.00,VWS V14.00,2013-01-28 16:00:00,
2013-01-28 11:02:00,32.9,30.3,30.32,SSE,159,1.0,5.0,90,0.00,,SKC,0.00,VWS V14.00,2013-01-28 16:02:00,
2013-01-28 11:07:00,33.0,30.4,30.33,SW,215,0.0,5.0,90,0.00,,SKC,0.00,VWS V14.00,2013-01-28 16:07:00,
2013-01-28 11:12:00,33.0,30.4,30.33,SW,219,0.0,5.0,90,0.00,,SKC,0.00,VWS V14.00,2013-01-28 16:12:00,
2013-01-28 11:17:00,33.0,30.4,30.32,SW,227,0.0,5.0,90,0.00,,SKC,0.00,VWS V14.00,2013-01-28 16:17:00,
2013-01-28 11:22:00,33.1,30.5,30.32,SSE,158,0.0,5.0,90,0.00,,SKC,0.00,VWS V14.00,2013-01-28 16:22:00,
2013-01-28 11:27:00,33.1,30.5,30.31,SW,231,0.0,3.0,90,0.00,,SKC,0.00,VWS V14.00,2013-01-28 16:27:00,
2013-01-28 11:30:00,33.1,30.5,30.31,SW,236,0.0,5.0,90,0.00,,SKC,0.00,VWS V14.00,2013-01-28 16:30:00,
2013-01-28 11:32:00,33.1,30.5,30.31,SW,225,1.0,3.0,90,0.00,,SKC,0.00,VWS V14.00,2013-01-28 16:32:00,
2013-01-28 11:37:00,33.1,30.5,30.30,West,269,0.0,5.0,90,0.00,,SKC,0.00,VWS V14.00,2013-01-28 16:37:00,
2013-01-28 11:42:00,33.1,30.5,30.29,WSW,258,1.0,5.0,90,0.00,,SKC,0.00,VWS V14.00,2013-01-28 16:42:00,
2013-01-28 11:47:00,33.2,30.6,30.28,WSW,258,1.0,5.0,90,0.00,,SKC,0.00,VWS V14.00,2013-01-28 16:47:00,
2013-01-28 11:52:00,33.2,30.6,30.28,SE,135,0.0,5.0,90,0.00,,SKC,0.00,VWS V14.00,2013-01-28 16:52:00,
2013-01-28 11:57:00,33.2,30.9,30.29,ESE,107,0.0,4.0,91,0.00,,SKC,0.00,VWS V14.00,2013-01-28 16:57:00,
2013-01-28 12:00:00,33.2,30.6,30.28,SE,138,0.0,5.0,90,0.00,,SKC,0.00,VWS V14.00,2013-01-28 17:00:00,
2013-01-28 12:02:00,33.2,30.9,30.28,South,191,0.0,5.0,91,0.00,,SKC,0.00,VWS V14.00,2013-01-28 17:02:00,
2013-01-28 12:07:00,33.3,31.0,30.28,South,173,0.0,5.0,91,0.00,,SKC,0.00,VWS V14.00,2013-01-28 17:07:00,
2013-01-28 12:12:00,33.3,31.0,30.27,ESE,115,0.0,6.0,91,0.00,,SKC,0.00,VWS V14.00,2013-01-28 17:12:00,
2013-01-28 12:17:00,33.3,31.0,30.26,SSE,161,4.0,6.0,91,0.00,,SKC,0.00,VWS V14.00,2013-01-28 17:17:00,
2013-01-28 12:22:00,33.3,31.0,30.25,SSE,158,1.0,6.0,91,0.00,,SKC,0.00,VWS V14.00,2013-01-28 17:22:00,
2013-01-28 12:27:00,33.3,31.0,30.25,SSE,147,0.0,2.0,91,0.00,,SKC,0.00,VWS V14.00,2013-01-28 17:27:00,
2013-01-28 12:30:00,33.3,31.0,30.25,SE,146,1.0,6.0,91,0.00,,SKC,0.00,VWS V14.00,2013-01-28 17:30:00,
2013-01-28 12:32:00,33.3,31.0,30.24,SSE,147,0.0,4.0,91,0.00,,SKC,0.00,VWS V14.00,2013-01-28 17:32:00,
2013-01-28 12:37:00,33.4,31.1,30.23,SSE,148,1.0,4.0,91,0.00,,SKC,0.00,VWS V14.00,2013-01-28 17:37:00,
2013-01-28 12:42:00,33.5,31.2,30.23,SSE,166,1.0,4.0,91,0.00,,SKC,0.00,VWS V14.00,2013-01-28 17:42:00,
2013-01-28 12:47:00,33.4,31.1,30.22,SE,132,0.0,5.0,91,0.00,,SKC,0.00,VWS V14.00,2013-01-28 17:47:00,
2013-01-28 12:52:00,33.5,31.2,30.22,South,183,1.0,5.0,91,0.00,,SKC,0.00,VWS V14.00,2013-01-28 17:52:00,
2013-01-28 12:57:00,33.5,31.2,30.22,SSW,207,4.0,4.0,91,0.00,,SKC,0.00,VWS V14.00,2013-01-28 17:57:00,
2013-01-28 13:00:00,33.5,31.2,30.22,South,183,1.0,5.0,91,0.00,,SKC,0.00,VWS V14.00,2013-01-28 18:00:00,
2013-01-28 13:02:00,33.5,31.2,30.22,SW,222,1.0,6.0,91,0.00,,SKC,0.00,VWS V14.00,2013-01-28 18:02:00,
2013-01-28 13:07:00,33.5,31.2,30.21,SW,218,0.0,6.0,91,0.00,,SKC,0.00,VWS V14.00,2013-01-28 18:07:00,
2013-01-28 13:12:00,33.6,31.3,30.21,WSW,252,0.0,6.0,91,0.00,,SKC,0.00,VWS V14.00,2013-01-28 18:12:00,
2013-01-28 13:17:00,33.6,31.5,30.21,SW,233,2.0,6.0,92,0.00,,SKC,0.00,VWS V14.00,2013-01-28 18:17:00,
2013-01-28 13:22:00,33.6,31.5,30.20,SW,233,2.0,6.0,92,0.00,,SKC,0.00,VWS V14.00,2013-01-28 18:22:00,
2013-01-28 13:27:00,33.6,31.5,30.20,ESE,113,1.0,5.0,92,0.00,,SKC,0.00,VWS V14.00,2013-01-28 18:27:00,
2013-01-28 13:30:00,33.6,31.5,30.20,SW,233,2.0,6.0,92,0.00,,SKC,0.00,VWS V14.00,2013-01-28 18:30:00,
2013-01-28 13:32:00,33.6,31.5,30.19,SE,124,0.0,5.0,92,0.00,,SKC,0.00,VWS V14.00,2013-01-28 18:32:00,
2013-01-28 13:37:00,33.6,31.5,30.19,SE,128,0.0,5.0,92,0.00,,SKC,0.00,VWS V14.00,2013-01-28 18:37:00,
2013-01-28 13:42:00,33.7,31.6,30.18,SSE,154,2.0,5.0,92,0.00,,SKC,0.00,VWS V14.00,2013-01-28 18:42:00,
2013-01-28 13:47:00,33.7,31.6,30.19,SSE,154,0.0,5.0,92,0.00,,SKC,0.00,VWS V14.00,2013-01-28 18:47:00,
2013-01-28 13:52:00,33.7,31.6,30.18,SSE,154,1.0,5.0,92,0.00,,SKC,0.00,VWS V14.00,2013-01-28 18:52:00,
2013-01-28 13:57:00,33.7,31.6,30.17,SSE,154,0.0,2.0,92,0.00,,SKC,0.00,VWS V14.00,2013-01-28 18:57:00,
2013-01-28 14:00:00,33.7,31.6,30.18,SSE,154,1.0,5.0,92,0.00,,SKC,0.00,VWS V14.00,2013-01-28 19:00:00,
2013-01-28 14:02:00,33.7,31.6,30.17,SSE,154,0.0,2.0,92,0.00,,SKC,0.00,VWS V14.00,2013-01-28 19:02:00,
2013-01-28 14:07:00,33.7,31.6,30.17,SSE,160,0.0,4.0,92,0.00,,SKC,0.00,VWS V14.00,2013-01-28 19:07:00,
2013-01-28 14:12:00,33.7,31.6,30.17,SSE,161,2.0,4.0,92,0.00,,SKC,0.00,VWS V14.00,2013-01-28 19:12:00,
2013-01-28 14:17:00,33.7,31.6,30.17,SSE,161,0.0,4.0,92,0.00,,SKC,0.00,VWS V14.00,2013-01-28 19:17:00,
2013-01-28 14:22:00,33.7,31.6,30.17,SSE,162,0.0,4.0,92,0.00,,SKC,0.00,VWS V14.00,2013-01-28 19:22:00,
2013-01-28 14:27:00,33.7,31.6,30.17,SSE,163,1.0,1.0,92,0.00,,SKC,0.00,VWS V14.00,2013-01-28 19:27:00,
2013-01-28 14:30:00,33.7,31.6,30.17,SSE,163,0.0,4.0,92,0.00,,SKC,0.00,VWS V14.00,2013-01-28 19:30:00,
2013-01-28 14:32:00,33.8,31.7,30.16,SSE,163,1.0,2.0,92,0.00,,SKC,0.00,VWS V14.00,2013-01-28 19:32:00,
2013-01-28 14:37:00,33.7,31.6,30.16,SSE,163,0.0,2.0,92,0.00,,SKC,0.00,VWS V14.00,2013-01-28 19:37:00,
2013-01-28 14:42:00,33.7,31.6,30.16,SSE,164,0.0,2.0,92,0.01,,SKC,0.01,VWS V14.00,2013-01-28 19:42:00,
2013-01-28 14:47:00,33.8,31.7,30.16,SSE,164,0.0,2.0,92,0.02,,SKC,0.02,VWS V14.00,2013-01-28 19:47:00,
2013-01-28 14:52:00,33.8,32.0,30.16,SSE,164,0.0,2.0,93,0.03,,SKC,0.03,VWS V14.00,2013-01-28 19:52:00,
2013-01-28 14:57:00,33.8,32.0,30.16,SSE,164,1.0,2.0,93,0.04,,SKC,0.04,VWS V14.00,2013-01-28 19:57:00,
2013-01-28 15:00:00,33.8,32.0,30.16,SSE,164,0.0,2.0,93,0.03,,SKC,0.03,VWS V14.00,2013-01-28 20:00:00,
2013-01-28 15:02:00,33.8,32.0,30.16,SSE,164,0.0,4.0,93,0.05,,SKC,0.05,VWS V14.00,2013-01-28 20:02:00,
2013-01-28 15:07:00,33.8,32.0,30.16,SSE,164,0.0,4.0,93,0.06,,SKC,0.06,VWS V14.00,2013-01-28 20:07:00,
2013-01-28 15:12:00,33.7,31.9,30.16,SSE,164,0.0,4.0,93,0.07,,SKC,0.07,VWS V14.00,2013-01-28 20:12:00,
2013-01-28 15:17:00,33.8,32.0,30.15,SSE,164,0.0,4.0,93,0.07,,SKC,0.07,VWS V14.00,2013-01-28 20:17:00,
2013-01-28 15:22:00,33.7,31.9,30.15,SSE,164,0.0,4.0,93,0.07,,SKC,0.07,VWS V14.00,2013-01-28 20:22:00,
2013-01-28 15:27:00,33.7,31.9,30.15,SSE,164,0.0,1.0,93,0.07,,SKC,0.07,VWS V14.00,2013-01-28 20:27:00,
2013-01-28 15:30:00,33.7,31.9,30.15,SSE,164,0.0,4.0,93,0.07,,SKC,0.07,VWS V14.00,2013-01-28 20:30:00,
2013-01-28 15:32:00,33.7,31.9,30.15,SSE,164,0.0,1.0,93,0.08,,SKC,0.08,VWS V14.00,2013-01-28 20:32:00,
2013-01-28 15:37:00,33.7,31.9,30.15,SSE,164,0.0,1.0,93,0.08,,SKC,0.08,VWS V14.00,2013-01-28 20:37:00,
2013-01-28 15:42:00,33.7,31.9,30.15,SSE,164,0.0,1.0,93,0.08,,SKC,0.08,VWS V14.00,2013-01-28 20:42:00,
2013-01-28 15:47:00,33.7,31.9,30.15,SSE,164,0.0,1.0,93,0.08,,SKC,0.08,VWS V14.00,2013-01-28 20:47:00,
2013-01-28 15:52:00,33.8,32.0,30.14,SSE,164,0.0,1.0,93,0.09,,SKC,0.09,VWS V14.00,2013-01-28 20:52:00,
2013-01-28 15:57:00,33.7,31.9,30.15,SSE,164,1.0,2.0,93,0.06,,SKC,0.09,VWS V14.00,2013-01-28 20:57:00,
2013-01-28 16:00:00,33.8,32.0,30.14,SSE,164,0.0,1.0,93,0.09,,SKC,0.09,VWS V14.00,2013-01-28 21:00:00,
2013-01-28 16:02:00,33.8,33.8,30.14,SSE,164,0.0,2.0,100,0.06,,SKC,0.09,VWS V14.00,2013-01-28 21:02:00,
2013-01-28 16:07:00,33.8,33.8,30.14,SSE,164,0.0,2.0,100,0.06,,SKC,0.09,VWS V14.00,2013-01-28 21:07:00,
2013-01-28 16:12:00,33.8,32.0,30.14,SSE,164,0.0,2.0,93,0.06,,SKC,0.09,VWS V14.00,2013-01-28 21:12:00,
2013-01-28 16:17:00,33.8,32.0,30.14,SSE,164,0.0,2.0,93,0.06,,SKC,0.09,VWS V14.00,2013-01-28 21:17:00,
2013-01-28 16:22:00,33.9,32.1,30.14,SSE,164,0.0,2.0,93,0.07,,SKC,0.10,VWS V14.00,2013-01-28 21:22:00,
2013-01-28 16:27:00,33.9,32.1,30.14,SSE,164,0.0,4.0,93,0.03,,SKC,0.10,VWS V14.00,2013-01-28 21:27:00,
2013-01-28 16:30:00,33.9,32.1,30.14,SSE,164,0.0,2.0,93,0.07,,SKC,0.10,VWS V14.00,2013-01-28 21:30:00,
2013-01-28 16:32:00,33.9,32.1,30.14,SSE,164,0.0,4.0,93,0.03,,SKC,0.10,VWS V14.00,2013-01-28 21:32:00,
2013-01-28 16:37:00,33.9,32.1,30.14,SSE,164,0.0,4.0,93,0.03,,SKC,0.10,VWS V14.00,2013-01-28 21:37:00,
2013-01-28 16:42:00,34.0,32.2,30.15,SSE,164,0.0,4.0,93,0.04,,SKC,0.11,VWS V14.00,2013-01-28 21:42:00,
2013-01-28 16:47:00,34.0,32.2,30.14,SSE,164,0.0,4.0,93,0.04,,SKC,0.11,VWS V14.00,2013-01-28 21:47:00,
2013-01-28 16:52:00,34.0,32.2,30.14,SSE,164,0.0,4.0,93,0.04,,SKC,0.11,VWS V14.00,2013-01-28 21:52:00,
2013-01-28 16:57:00,34.0,32.2,30.14,SSE,164,0.0,4.0,93,0.02,,SKC,0.11,VWS V14.00,2013-01-28 21:57:00,
2013-01-28 17:00:00,34.0,32.2,30.14,SSE,164,0.0,4.0,93,0.04,,SKC,0.11,VWS V14.00,2013-01-28 22:00:00,
2013-01-28 17:02:00,34.0,32.2,30.14,SSE,164,0.0,4.0,93,0.02,,SKC,0.11,VWS V14.00,2013-01-28 22:02:00,
2013-01-28 17:07:00,33.9,32.1,30.13,SSE,164,0.0,4.0,93,0.02,,SKC,0.11,VWS V14.00,2013-01-28 22:07:00,
2013-01-28 17:12:00,34.0,32.2,30.13,SSE,164,0.0,4.0,93,0.02,,SKC,0.11,VWS V14.00,2013-01-28 22:12:00,
2013-01-28 17:17:00,34.0,32.2,30.13,SSE,164,0.0,4.0,93,0.02,,SKC,0.11,VWS V14.00,2013-01-28 22:17:00,
2013-01-28 17:22:00,34.0,32.2,30.13,SSE,165,0.0,4.0,93,0.02,,SKC,0.11,VWS V14.00,2013-01-28 22:22:00,
2013-01-28 17:27:00,34.0,32.2,30.13,South,171,1.0,5.0,93,0.01,,SKC,0.11,VWS V14.00,2013-01-28 22:27:00,
2013-01-28 17:30:00,33.9,32.1,30.13,SSE,165,4.0,4.0,93,0.02,,SKC,0.11,VWS V14.00,2013-01-28 22:30:00,
2013-01-28 17:32:00,33.9,32.1,30.13,South,171,0.0,5.0,93,0.01,,SKC,0.11,VWS V14.00,2013-01-28 22:32:00,
2013-01-28 17:37:00,34.0,32.2,30.13,South,172,0.0,5.0,93,0.01,,SKC,0.11,VWS V14.00,2013-01-28 22:37:00,
2013-01-28 17:42:00,34.0,32.2,30.13,South,172,0.0,5.0,93,0.02,,SKC,0.12,VWS V14.00,2013-01-28 22:42:00,
2013-01-28 17:47:00,34.0,32.2,30.12,South,172,0.0,5.0,93,0.02,,SKC,0.12,VWS V14.00,2013-01-28 22:47:00,
2013-01-28 17:52:00,34.0,32.2,30.12,South,172,0.0,5.0,93,0.02,,SKC,0.12,VWS V14.00,2013-01-28 22:52:00,
2013-01-28 17:57:00,34.0,32.2,30.12,South,172,0.0,0.0,93,0.01,,SKC,0.12,VWS V14.00,2013-01-28 22:57:00,
2013-01-28 18:00:00,34.0,32.2,30.12,South,172,0.0,5.0,93,0.02,,SKC,0.12,VWS V14.00,2013-01-28 23:00:00,
2013-01-28 18:02:00,34.0,32.2,30.12,South,172,0.0,4.0,93,0.01,,SKC,0.12,VWS V14.00,2013-01-28 23:02:00,
2013-01-28 18:06:00,34.0,32.2,30.12,South,172,0.0,4.0,93,0.01,,SKC,0.12,VWS V14.00,2013-01-28 23:06:00,
2013-01-28 18:11:00,34.0,32.2,30.13,South,172,0.0,4.0,93,0.01,,SKC,0.12,VWS V14.00,2013-01-28 23:11:00,
2013-01-28 18:16:00,34.0,32.2,30.13,South,172,0.0,4.0,93,0.01,,SKC,0.12,VWS V14.00,2013-01-28 23:16:00,
2013-01-28 18:21:00,34.1,32.3,30.12,South,172,0.0,4.0,93,0.01,,SKC,0.12,VWS V14.00,2013-01-28 23:21:00,
2013-01-28 18:26:00,34.1,32.3,30.12,South,172,0.0,1.0,93,0.02,,SKC,0.13,VWS V14.00,2013-01-28 23:26:00,
2013-01-28 18:30:00,34.1,32.3,30.13,South,172,0.0,4.0,93,0.01,,SKC,0.12,VWS V14.00,2013-01-28 23:30:00,
2013-01-28 18:31:00,34.1,32.3,30.11,South,172,0.0,1.0,93,0.02,,SKC,0.13,VWS V14.00,2013-01-28 23:31:00,
2013-01-28 18:36:00,34.1,32.3,30.13,South,172,0.0,2.0,93,0.02,,SKC,0.13,VWS V14.00,2013-01-28 23:36:00,
2013-01-28 18:41:00,34.1,32.6,30.13,South,172,0.0,2.0,94,0.02,,SKC,0.13,VWS V14.00,2013-01-28 23:41:00,
2013-01-28 18:46:00,34.1,32.6,30.13,South,172,0.0,2.0,94,0.02,,SKC,0.13,VWS V14.00,2013-01-28 23:46:00,
2013-01-28 18:51:00,34.2,32.7,30.13,South,172,0.0,2.0,94,0.02,,SKC,0.13,VWS V14.00,2013-01-28 23:51:00,
2013-01-28 18:56:00,34.1,32.6,30.13,South,172,0.0,0.0,94,0.01,,SKC,0.13,VWS V14.00,2013-01-28 23:56:00,
2013-01-28 19:00:00,34.1,32.6,30.13,South,172,0.0,2.0,94,0.02,,SKC,0.13,VWS V14.00,2013-01-29 00:00:00,
2013-01-28 19:01:00,34.1,32.6,30.12,South,172,0.0,0.0,94,0.01,,SKC,0.13,VWS V14.00,2013-01-29 00:01:00,
2013-01-28 19:06:00,34.1,32.6,30.12,South,172,0.0,0.0,94,0.01,,SKC,0.13,VWS V14.00,2013-01-29 00:06:00,
2013-01-28 19:11:00,34.1,32.6,30.12,South,172,0.0,0.0,94,0.02,,SKC,0.14,VWS V14.00,2013-01-29 00:11:00,
2013-01-28 19:16:00,34.1,32.6,30.12,South,172,0.0,0.0,94,0.02,,SKC,0.14,VWS V14.00,2013-01-29 00:16:00,
2013-01-28 19:21:00,34.1,32.6,30.12,South,172,0.0,0.0,94,0.02,,SKC,0.14,VWS V14.00,2013-01-29 00:21:00,
2013-01-28 19:26:00,34.2,32.7,30.12,South,172,0.0,0.0,94,0.02,,SKC,0.14,VWS V14.00,2013-01-29 00:26:00,
2013-01-28 19:30:00,34.2,32.7,30.12,South,172,0.0,0.0,94,0.02,,SKC,0.14,VWS V14.00,2013-01-29 00:30:00,
2013-01-28 19:31:00,34.2,32.7,30.12,South,172,0.0,0.0,94,0.02,,SKC,0.14,VWS V14.00,2013-01-29 00:31:00,
2013-01-28 19:36:00,34.2,32.7,30.11,South,172,0.0,1.0,94,0.02,,SKC,0.14,VWS V14.00,2013-01-29 00:36:00,
2013-01-28 19:41:00,34.3,32.8,30.11,South,172,0.0,1.0,94,0.02,,SKC,0.14,VWS V14.00,2013-01-29 00:41:00,
2013-01-28 19:46:00,34.2,32.7,30.11,South,172,0.0,1.0,94,0.02,,SKC,0.14,VWS V14.00,2013-01-29 00:46:00,
2013-01-28 19:51:00,34.3,32.8,30.12,South,172,0.0,1.0,94,0.02,,SKC,0.14,VWS V14.00,2013-01-29 00:51:00,
2013-01-28 19:56:00,34.3,32.8,30.11,South,172,0.0,0.0,94,0.02,,SKC,0.15,VWS V14.00,2013-01-29 00:56:00,
2013-01-28 20:00:00,34.3,32.8,30.11,South,172,0.0,1.0,94,0.02,,SKC,0.14,VWS V14.00,2013-01-29 01:00:00,
2013-01-28 20:01:00,34.3,32.8,30.11,South,172,0.0,0.0,94,0.02,,SKC,0.15,VWS V14.00,2013-01-29 01:01:00,
2013-01-28 20:06:00,34.4,32.9,30.10,South,172,0.0,0.0,94,0.02,,SKC,0.15,VWS V14.00,2013-01-29 01:06:00,
2013-01-28 20:11:00,34.5,33.0,30.10,South,172,0.0,0.0,94,0.02,,SKC,0.15,VWS V14.00,2013-01-29 01:11:00,
2013-01-28 20:16:00,34.5,33.0,30.10,South,172,0.0,0.0,94,0.02,,SKC,0.15,VWS V14.00,2013-01-29 01:16:00,
2013-01-28 20:21:00,34.5,33.0,30.10,South,172,0.0,0.0,94,0.02,,SKC,0.15,VWS V14.00,2013-01-29 01:21:00,
2013-01-28 20:26:00,34.6,33.0,30.10,South,172,0.0,0.0,94,0.01,,SKC,0.15,VWS V14.00,2013-01-29 01:26:00,
2013-01-28 20:30:00,34.5,33.0,30.10,South,172,0.0,0.0,94,0.02,,SKC,0.15,VWS V14.00,2013-01-29 01:30:00,
2013-01-28 20:31:00,34.6,33.0,30.10,South,172,0.0,0.0,94,0.01,,SKC,0.15,VWS V14.00,2013-01-29 01:31:00,
2013-01-28 20:36:00,34.5,33.0,30.09,South,172,0.0,0.0,94,0.01,,SKC,0.15,VWS V14.00,2013-01-29 01:36:00,
2013-01-28 20:41:00,34.5,33.0,30.09,South,172,0.0,0.0,94,0.01,,SKC,0.15,VWS V14.00,2013-01-29 01:41:00,
2013-01-28 20:46:00,34.5,33.0,30.09,South,172,0.0,0.0,94,0.01,,SKC,0.15,VWS V14.00,2013-01-29 01:46:00,
2013-01-28 20:51:00,34.5,33.0,30.09,South,172,0.0,0.0,94,0.01,,SKC,0.15,VWS V14.00,2013-01-29 01:51:00,
2013-01-28 20:56:00,34.4,32.9,30.09,South,172,0.0,0.0,94,0.01,,SKC,0.15,VWS V14.00,2013-01-29 01:56:00,
2013-01-28 21:00:00,34.4,32.9,30.09,South,172,0.0,0.0,94,0.01,,SKC,0.15,VWS V14.00,2013-01-29 02:00:00,
2013-01-28 21:01:00,34.4,32.9,30.09,South,172,0.0,0.0,94,0.01,,SKC,0.15,VWS V14.00,2013-01-29 02:01:00,
2013-01-28 21:06:00,34.4,32.9,30.09,South,172,0.0,0.0,94,0.02,,SKC,0.16,VWS V14.00,2013-01-29 02:06:00,
2013-01-28 21:11:00,34.4,32.9,30.09,South,172,0.0,0.0,94,0.02,,SKC,0.16,VWS V14.00,2013-01-29 02:11:00,
2013-01-28 21:16:00,34.4,32.9,30.09,South,172,0.0,0.0,94,0.02,,SKC,0.16,VWS V14.00,2013-01-29 02:16:00,
2013-01-28 21:21:00,34.4,32.9,30.09,South,172,0.0,0.0,94,0.02,,SKC,0.16,VWS V14.00,2013-01-29 02:21:00,
2013-01-28 21:26:00,34.4,32.9,30.09,South,172,0.0,0.0,94,0.01,,SKC,0.16,VWS V14.00,2013-01-29 02:26:00,
2013-01-28 21:30:00,34.4,32.9,30.09,South,172,0.0,0.0,94,0.02,,SKC,0.16,VWS V14.00,2013-01-29 02:30:00,
2013-01-28 21:31:00,34.3,32.8,30.09,South,172,0.0,0.0,94,0.01,,SKC,0.16,VWS V14.00,2013-01-29 02:31:00,
2013-01-28 21:36:00,34.3,32.8,30.09,South,172,0.0,0.0,94,0.01,,SKC,0.16,VWS V14.00,2013-01-29 02:36:00,
2013-01-28 21:41:00,34.3,32.8,30.09,South,172,0.0,0.0,94,0.01,,SKC,0.16,VWS V14.00,2013-01-29 02:41:00,
2013-01-28 21:46:00,34.3,32.8,30.09,South,172,0.0,0.0,94,0.01,,SKC,0.16,VWS V14.00,2013-01-29 02:46:00,
2013-01-28 21:51:00,34.3,32.8,30.09,South,172,0.0,0.0,94,0.02,,SKC,0.17,VWS V14.00,2013-01-29 02:51:00,
2013-01-28 21:56:00,34.3,32.8,30.09,South,172,0.0,0.0,94,0.02,,SKC,0.17,VWS V14.00,2013-01-29 02:56:00,
2013-01-28 22:00:00,34.3,32.8,30.09,South,172,0.0,0.0,94,0.02,,SKC,0.17,VWS V14.00,2013-01-29 03:00:00,
2013-01-28 22:01:00,34.3,32.8,30.09,South,172,0.0,1.0,94,0.02,,SKC,0.17,VWS V14.00,2013-01-29 03:01:00,
2013-01-28 22:06:00,34.4,32.9,30.09,South,172,0.0,1.0,94,0.02,,SKC,0.17,VWS V14.00,2013-01-29 03:06:00,
2013-01-28 22:11:00,34.4,32.9,30.08,South,172,0.0,1.0,94,0.02,,SKC,0.17,VWS V14.00,2013-01-29 03:11:00,
2013-01-28 22:16:00,34.4,32.9,30.08,South,172,0.0,1.0,94,0.02,,SKC,0.17,VWS V14.00,2013-01-29 03:16:00,
2013-01-28 22:21:00,34.4,32.9,30.09,South,172,0.0,1.0,94,0.02,,SKC,0.17,VWS V14.00,2013-01-29 03:21:00,
2013-01-28 22:26:00,34.4,32.9,30.09,South,172,0.0,0.0,94,0.01,,SKC,0.17,VWS V14.00,2013-01-29 03:26:00,
2013-01-28 22:30:00,34.4,32.9,30.09,South,172,0.0,1.0,94,0.02,,SKC,0.17,VWS V14.00,2013-01-29 03:30:00,
2013-01-28 22:31:00,34.3,32.8,30.09,South,172,0.0,0.0,94,0.01,,SKC,0.17,VWS V14.00,2013-01-29 03:31:00,
2013-01-28 22:36:00,34.4,32.9,30.09,South,172,0.0,0.0,94,0.01,,SKC,0.17,VWS V14.00,2013-01-29 03:36:00,
2013-01-28 22:41:00,34.4,32.9,30.09,South,172,0.0,0.0,94,0.01,,SKC,0.17,VWS V14.00,2013-01-29 03:41:00,
2013-01-28 22:46:00,34.4,32.9,30.09,South,172,0.0,0.0,94,0.01,,SKC,0.17,VWS V14.00,2013-01-29 03:46:00,
2013-01-28 22:51:00,34.4,32.9,30.09,South,172,0.0,0.0,94,0.01,,SKC,0.17,VWS V14.00,2013-01-29 03:51:00,
2013-01-28 22:56:00,34.4,32.9,30.09,South,172,0.0,0.0,94,0.01,,SKC,0.18,VWS V14.00,2013-01-29 03:56:00,
2013-01-28 23:00:00,34.4,32.9,30.09,South,172,0.0,0.0,94,0.01,,SKC,0.17,VWS V14.00,2013-01-29 04:00:00,
2013-01-28 23:01:00,34.4,32.9,30.09,South,172,0.0,0.0,94,0.01,,SKC,0.18,VWS V14.00,2013-01-29 04:01:00,
2013-01-28 23:06:00,34.4,32.9,30.09,South,172,0.0,0.0,94,0.01,,SKC,0.18,VWS V14.00,2013-01-29 04:06:00,
2013-01-28 23:11:00,34.5,33.0,30.08,South,172,0.0,0.0,94,0.01,,SKC,0.18,VWS V14.00,2013-01-29 04:11:00,
2013-01-28 23:16:00,34.6,33.0,30.09,South,172,0.0,0.0,94,0.01,,SKC,0.18,VWS V14.00,2013-01-29 04:16:00,
2013-01-28 23:21:00,34.6,33.0,30.09,South,172,0.0,0.0,94,0.01,,SKC,0.18,VWS V14.00,2013-01-29 04:21:00,
2013-01-28 23:26:00,34.6,33.0,30.08,South,172,0.0,0.0,94,0.01,,SKC,0.18,VWS V14.00,2013-01-29 04:26:00,
2013-01-28 23:30:00,34.6,33.0,30.08,South,172,0.0,0.0,94,0.01,,SKC,0.18,VWS V14.00,2013-01-29 04:30:00,
2013-01-28 23:31:00,34.6,33.0,30.09,South,172,0.0,0.0,94,0.01,,SKC,0.18,VWS V14.00,2013-01-29 04:31:00,
2013-01-28 23:36:00,34.7,33.2,30.09,South,172,0.0,0.0,94,0.02,,SKC,0.19,VWS V14.00,2013-01-29 04:36:00,
2013-01-28 23:41:00,34.7,33.2,30.09,South,172,0.0,0.0,94,0.02,,SKC,0.19,VWS V14.00,2013-01-29 04:41:00,
2013-01-28 23:46:00,34.7,33.2,30.09,South,172,0.0,0.0,94,0.02,,SKC,0.19,VWS V14.00,2013-01-29 04:46:00,
2013-01-28 23:51:00,34.7,33.2,30.09,South,172,0.0,0.0,94,0.02,,SKC,0.19,VWS V14.00,2013-01-29 04:51:00,
2013-01-28 23:56:00,34.8,33.2,30.09,South,172,0.0,0.0,94,0.02,,SKC,0.00,VWS V14.00,2013-01-29 04:56:00,